Location: Anan
(43.3550°N, 0.8171°E)
Time: 12:28:48
(UTC+00:00)

USA 305 - Pass Details

Date: 14 May 2026
Orbit: 491 x 494 km, 54.4° (Epoch: 11 March)

Event Time Altitude Azimuth Distance (km) Brightness Sun altitude
Rises 20:12:48 0° 304° (NW) 2,584 8.6 -10.0°
Reaches altitude 10° 20:15:07 10° 299° (WNW) 1,721 6.9 -10.3°
Maximum altitude 20:19:02 46° 226° (SW) 656 3.2 -10.8°
Enters shadow 20:21:49 15° 156° (SSE) 1,276 4.1 -11.2°
